Location: Winthrop
(48.4780°N, 120.1850°W)
Time: 16:07:34
(UTC-07:00)

Explorer 7 - Pass Details

Date: 30 January 2023
Orbit: 478 x 657 km, 50.3° (Epoch: 30 March)

Event Time Altitude Azimuth Distance (km) Brightness Sun altitude
Rises 17:50:17 0° 287° (WNW) 2,881 11.5 -9.2°
Reaches altitude 10° 17:52:33 10° 286° (WNW) 2,000 10.7 -9.5°
Maximum altitude 17:57:10 76° 202° (SSW) 668 7.3 -10.3°
Drops below altitude 10° 18:01:56 10° 117° (ESE) 2,066 9.3 -11.0°
Enters shadow 18:02:29 - 117° (ESE) 2,274 9.5 -11.1°
Sets 18:04:19 0° 116° (ESE) 2,984 - -11.4°
